Fitchburg, MA

5:59 AM EST on December 13, 2019 (GMT -0500)
Fitchburg Municipal

Weather History for KFIT - June, 2019

Change the Weather History Date:

Thursday, June 6, 2019

  Actual Average (WUND) Record (WUND)
Temperature  
Mean Temperature 72 °F -  
Max Temperature 81 °F - - (-1)
Min Temperature 60 °F - - (-1)
Cooling Degree Days 6    
Growing Degree Days 22 (Base 50)    
Moisture  
Dew Point 61 °F    
Average Humidity 79    
Maximum Humidity 97    
Minimum Humidity 45    
Precipitation  
Precipitation 0.36 in - - ()
Sea Level Pressure  
Sea Level Pressure 29.72 in    
Wind  
Wind Speed 4 mph (NNE)    
Max Wind Speed 12 mph    
Max Gust Speed 17 mph    
Visibility 8 miles    
Events Rain , Thunderstorm    
Averages and records for this station are not official NWS values.
T = Trace of Precipitation, MM = Missing Value Source: NWS Daily Summary

Daily Weather History Graph

Daily Weather History Graph

Search for Another Location

Airport or City:

Astronomy

Jun. 06, 2019 Rise Set
Actual Time 5:10 AM EDT 8:21 PM EDT
Civil Twilight 4:35 AM EDT 8:55 PM EDT
Nautical Twilight 3:51 AM EDT 9:40 PM EDT
Astronomical Twilight 2:58 AM EDT 10:33 PM EDT
Moon 8:16 AM EDT (6/6) 11:35 PM EDT (6/6)
Length of Visible Light 16h 20m
Length of Day
15h 11m
Waxing Crescent, 13% of the Moon is Illuminated
Jun 6
Waxing Crescent
Jun 10
First Quarter
Jun 17
Full
Jun 25
Last Quarter
Jul 2
New

Hourly Weather History & Observations

Time (EDT) Temp. Heat Index Dew Point Humidity Pressure Visibility Wind Dir Wind Speed Gust Speed Precip Events Conditions
12:00 AM 66.0 °F - 64.0 °F 93% 29.71 in 1.2 mi Calm Calm - 0.07 in Rain Heavy Rain
12:02 AM 66.0 °F - 64.0 °F 93% 29.71 in 1.5 mi East 3.5 mph - 0.07 in Rain , Thunderstorm Heavy Rain
12:09 AM 66.0 °F - 64.0 °F 93% 29.71 in 3.0 mi North 3.5 mph - 0.10 in Rain , Thunderstorm Rain
12:15 AM 66.0 °F - 64.0 °F 93% 29.71 in 2.5 mi NNE 4.6 mph - 0.14 in Rain , Thunderstorm Heavy Thunderstorms and Rain
12:36 AM 66.0 °F - 64.0 °F 93% 29.70 in 1.2 mi ESE 5.8 mph - 0.34 in Rain , Thunderstorm Heavy Thunderstorms and Rain
12:41 AM 66.0 °F - 64.0 °F 93% 29.70 in 2.0 mi East 3.5 mph - 0.35 in Rain Light Rain
12:45 AM 66.0 °F - 64.0 °F 93% 29.70 in 3.0 mi ESE 5.8 mph - 0.35 in Rain Light Rain
12:52 AM 66.0 °F - 64.0 °F 93% 29.70 in 6.0 mi Calm Calm - 0.35 in Rain Light Rain
1:13 AM 66.0 °F - 64.0 °F 93% 29.70 in 6.0 mi Calm Calm - 0.00 in   Overcast
1:23 AM 66.0 °F - 64.0 °F 93% 29.69 in 6.0 mi Calm Calm - 0.00 in   Overcast
1:52 AM 64.0 °F - 62.1 °F 93% 29.68 in 10.0 mi ENE 3.5 mph - 0.00 in   Overcast
2:52 AM 63.0 °F - 61.0 °F 93% 29.66 in 10.0 mi East 3.5 mph - 0.00 in   Overcast
3:52 AM 63.0 °F - 62.1 °F 97% 29.63 in 7.0 mi Calm Calm - 0.01 in Rain Light Rain
4:52 AM 63.0 °F - 61.0 °F 93% 29.62 in 9.0 mi Calm Calm - 0.00 in   Overcast
5:52 AM 63.0 °F - 61.0 °F 93% 29.62 in 7.0 mi Calm Calm - N/A   Mostly Cloudy
6:11 AM 64.0 °F - 62.1 °F 93% 29.64 in 7.0 mi NE 3.5 mph - N/A   Mostly Cloudy
6:52 AM 64.9 °F - 63.0 °F 93% 29.64 in 6.0 mi WNW 3.5 mph - 0.00 in Rain Light Rain
7:52 AM 68.0 °F - 64.0 °F 87% 29.65 in 7.0 mi Calm Calm - 0.00 in Rain Light Rain
8:52 AM 73.0 °F - 64.0 °F 73% 29.66 in 10.0 mi NW 10.4 mph - 0.00 in   Scattered Clouds
8:59 AM 72.0 °F - 64.0 °F 76% 29.67 in 10.0 mi WNW 6.9 mph - N/A   Mostly Cloudy
9:14 AM 66.9 °F - 62.1 °F 84% 29.68 in 10.0 mi NNE 11.5 mph 17.3 mph N/A   Overcast
10:00 AM 69.1 °F - 63.0 °F 81% 29.69 in 10.0 mi NNE 9.2 mph - N/A   Overcast
10:52 AM 72.0 °F - 61.0 °F 68% 29.71 in 10.0 mi NNE 8.1 mph 17.3 mph N/A   Mostly Cloudy
11:33 AM 73.0 °F - 61.0 °F 66% 29.73 in 10.0 mi North 6.9 mph - N/A   Overcast
11:52 AM 73.9 °F - 60.1 °F 62% 29.73 in 10.0 mi North 9.2 mph - N/A   Overcast
12:52 PM 75.9 °F - 60.1 °F 58% 29.74 in 10.0 mi North 8.1 mph - N/A   Mostly Cloudy
1:52 PM 78.1 °F - 61.0 °F 56% 29.73 in 10.0 mi NNW 8.1 mph - N/A   Mostly Cloudy
2:52 PM 79.0 °F - 59.0 °F 50% 29.74 in 10.0 mi North 10.4 mph - N/A   Overcast
3:52 PM 79.0 °F - 55.9 °F 45% 29.75 in 10.0 mi NNW 8.1 mph - N/A   Partly Cloudy
4:52 PM 80.1 °F 80.6 °F 57.9 °F 47% 29.75 in 10.0 mi NW 10.4 mph - N/A   Partly Cloudy
5:52 PM 78.1 °F - 57.0 °F 48% 29.76 in 10.0 mi WNW 11.5 mph - N/A   Mostly Cloudy
6:52 PM 77.0 °F - 55.0 °F 47% 29.79 in 10.0 mi NNW 11.5 mph - N/A   Scattered Clouds
7:52 PM 73.9 °F - 55.0 °F 52% 29.80 in 10.0 mi Calm Calm - N/A   Clear
8:52 PM 66.9 °F - 57.9 °F 73% 29.81 in 10.0 mi Calm Calm - N/A   Clear
9:52 PM 68.0 °F - 60.1 °F 76% 29.85 in 10.0 mi Calm Calm - N/A   Mostly Cloudy
10:52 PM 64.0 °F - 60.1 °F 87% 29.86 in 10.0 mi Calm Calm - N/A   Mostly Cloudy
11:52 PM 60.1 °F - 57.0 °F 90% 29.88 in 10.0 mi Calm Calm - N/A   Clear